Overview Statistics Trail Chart Weather Telemetry Raw packets
 

This is the latest recevied weather packets stored in our database for station/object WA1TYB-13. If no packets are shown the sender has not sent any weather packets the latest 10 day(s).

<< 11 12 13 14 15 16 17 >>
Time Temp. Humidity Pressure Rain* Wind** Luminosity Snow
1788535307 16.67° C 45% 1013.3 hPa 0 mm - 227 W/m² -
1788535002 16.67° C 45% 1013.1 hPa 0 mm - 186 W/m² -
1788534701 16.11° C 47% 1013 hPa 0 mm - 166 W/m² -
1788534397 16.11° C 48% 1013 hPa 0 mm - 155 W/m² -
1788534092 15° C 51% 1012.9 hPa 0 mm - 148 W/m² -
1788533791 14.44° C 54% 1012.9 hPa 0 mm - 48 W/m² -
1788533486 15° C 52% 1012.6 hPa 0 mm - 51 W/m² -
1788533181 15° C 50% 1012.3 hPa 0 mm - 72 W/m² -
1788532877 15° C 50% 1012.3 hPa 0 mm - 126 W/m² -
1788532573 13.89° C 53% 1012.3 hPa 0 mm - 96 W/m² -
1788532269 13.33° C 54% 1012.2 hPa 0 mm - 48 W/m² -
1788531965 13.89° C 54% 1012 hPa 0 mm - 35 W/m² -
1788531660 13.89° C 53% 1012 hPa 0 mm - 37 W/m² -
1788531355 13.89° C 53% 1011.6 hPa 0 mm - 39 W/m² -
1788531050 13.89° C 52% 1011.3 hPa 0 mm - 41 W/m² -
1788530746 13.89° C 53% 1011.3 hPa 0 mm - 36 W/m² -
1788530440 13.33° C 54% 1011.2 hPa 0 mm - 40 W/m² -
1788530139 13.33° C 55% 1011.1 hPa 0 mm - 39 W/m² -
1788529836 12.78° C 56% 1011 hPa 0 mm - 49 W/m² -
1788529531 12.78° C 56% 1010.6 hPa 0 mm - 42 W/m² -
1788529225 12.22° C 56% 1010.4 hPa 0 mm - 39 W/m² -
1788528920 11.67° C 58% 1010.1 hPa 0 mm - 28 W/m² -
1788528616 11.11° C 59% 1010.1 hPa 0 mm - 25 W/m² -
1788528310 11.11° C 59% 1009.8 hPa 0 mm - 21 W/m² -
1788528010 11.11° C 60% 1009.6 hPa 0 mm - 20 W/m² -

* Rain latest hour (hover to see other rain measurements)
** Current wind speed in m/s (hover to see current wind gust speed)